TimeCDT,TemperatureF,Dew PointF,Humidity,Sea Level PressureIn,VisibilityMPH,Wind Direction,Wind SpeedMPH,Gust SpeedMPH,PrecipitationIn,Events,Conditions,WindDirDegrees,DateUTC
12:54 AM,39.9,35.1,83,29.97,10.0,West,10.4,-,N/A,,Clear,270,2014-05-02 05:54:00
1:54 AM,39.0,34.0,82,29.96,10.0,West,9.2,-,N/A,,Clear,260,2014-05-02 06:54:00
2:54 AM,39.0,34.0,82,29.94,10.0,West,8.1,-,N/A,,Clear,260,2014-05-02 07:54:00
3:54 AM,37.9,32.0,79,29.92,10.0,WSW,5.8,-,N/A,,Clear,240,2014-05-02 08:54:00
4:54 AM,33.1,28.9,85,29.92,10.0,SSE,4.6,-,N/A,,Clear,160,2014-05-02 09:54:00
5:54 AM,37.9,30.9,76,29.89,10.0,West,9.2,-,N/A,,Clear,260,2014-05-02 10:54:00
6:54 AM,37.9,30.9,76,29.88,10.0,SW,6.9,-,N/A,,Clear,230,2014-05-02 11:54:00
7:54 AM,43.0,33.1,68,29.88,10.0,South,5.8,-,N/A,,Clear,190,2014-05-02 12:54:00
8:54 AM,50.0,35.1,57,29.87,10.0,SW,6.9,-,N/A,,Mostly Cloudy,230,2014-05-02 13:54:00
9:54 AM,55.9,36.0,47,29.83,10.0,WSW,16.1,-,N/A,,Clear,250,2014-05-02 14:54:00
10:54 AM,63.0,36.0,37,29.82,10.0,SW,13.8,-,N/A,,Mostly Cloudy,220,2014-05-02 15:54:00
11:54 AM,69.1,34.0,27,29.78,10.0,WSW,18.4,28.8,N/A,,Clear,250,2014-05-02 16:54:00
12:54 PM,73.0,33.1,23,29.75,10.0,West,18.4,28.8,N/A,,Scattered Clouds,270,2014-05-02 17:54:00
1:54 PM,75.0,34.0,22,29.73,10.0,West,18.4,33.4,N/A,,Mostly Cloudy,280,2014-05-02 18:54:00
2:54 PM,71.1,37.9,30,29.74,10.0,NW,21.9,31.1,N/A,,Mostly Cloudy,320,2014-05-02 19:54:00
3:54 PM,64.9,35.1,33,29.76,10.0,WNW,18.4,-,N/A,,Overcast,300,2014-05-02 20:54:00
4:54 PM,68.0,33.1,27,29.76,10.0,NW,21.9,-,N/A,,Scattered Clouds,320,2014-05-02 21:54:00
5:54 PM,68.0,30.0,24,29.76,10.0,NW,17.3,-,N/A,,Scattered Clouds,310,2014-05-02 22:54:00
6:54 PM,66.9,32.0,27,29.78,10.0,NW,17.3,-,N/A,,Scattered Clouds,320,2014-05-02 23:54:00
7:54 PM,61.0,34.0,36,29.79,10.0,NW,11.5,-,N/A,,Clear,320,2014-05-03 00:54:00
8:54 PM,59.0,34.0,39,29.80,10.0,NW,11.5,-,N/A,,Clear,310,2014-05-03 01:54:00
9:54 PM,57.9,34.0,41,29.80,10.0,NW,10.4,-,N/A,,Clear,310,2014-05-03 02:54:00
10:54 PM,57.9,34.0,41,29.81,10.0,NW,11.5,-,N/A,,Clear,310,2014-05-03 03:54:00
11:54 PM,57.9,35.1,42,29.81,10.0,NW,8.1,-,N/A,,Overcast,310,2014-05-03 04:54:00